Location: Newark
(47.5000°N, 4.6167°E)
Time: 18:58:11
(UTC+00:00)

N. Korean satellite - Visible Passes

Search period start: 29 November 2021 00:00
Search period end: 09 December 2021 00:00
Orbit: 447 x 495 km, 97.3° (Epoch: 28 November)

Date Brightness Start Highest point End Pass type
(mag) Time Alt. Az. Time Alt. Az. Time Alt. Az.
29 Nov 9.4 04:07:51 10° NE 04:10:07 17° E 04:12:22 10° SE visible
29 Nov 7.1 05:40:21 10° N 05:43:26 32° WNW 05:46:30 10° SW visible
30 Nov 6.2 05:11:39 10° N 05:15:04 76° WNW 05:18:26 10° SSW visible
30 Nov 10.2 17:24:45 10° W 17:25:28 10° W 17:26:12 10° WNW visible
01 Dec 7.5 04:43:16 10° NNE 04:46:33 44° E 04:49:47 10° S visible
01 Dec 8.2 06:17:37 10° NNW 06:19:23 14° WNW 06:21:08 10° W visible
01 Dec 9.4 16:53:57 10° SSW 16:56:45 22° W 16:59:33 10° NW visible
02 Dec 9.1 04:15:19 10° NE 04:17:56 20° E 04:20:30 10° SE visible
02 Dec 7.3 05:48:13 10° N 05:51:08 26° WNW 05:54:01 10° SW visible
02 Dec 7.8 16:24:43 10° S 16:28:08 46° W 16:31:33 10° NNW visible
03 Dec 6.3 05:19:24 10° N 05:22:45 59° WNW 05:26:05 10° SSW visible
04 Dec 7.0 04:50:53 10° NNE 04:54:15 56° E 04:57:34 10° S visible
04 Dec 8.4 06:25:53 10° NW 06:26:59 11° WNW 06:28:05 10° W visible
04 Dec 9.6 17:02:03 10° SW 17:04:30 18° W 17:06:56 10° NW visible
05 Dec 8.7 04:22:46 10° NE 04:25:37 25° E 04:28:28 10° SSE visible
05 Dec 7.6 05:56:03 10° NNW 05:58:44 22° WNW 06:01:24 10° WSW visible
05 Dec 8.3 16:32:32 10° SSW 16:35:49 37° W 16:39:05 10° NNW visible
06 Dec 9.8 03:55:33 10° ENE 03:56:53 12° E 03:58:12 10° ESE visible
06 Dec 6.6 05:27:05 10° N 05:30:21 47° WNW 05:33:36 10° SSW visible
07 Dec 6.5 04:58:28 10° NNE 05:01:51 72° E 05:05:14 10° S visible
07 Dec 9.7 17:10:10 10° SW 17:12:09 14° W 17:14:08 10° WNW visible
08 Dec 8.3 04:30:11 10° NNE 04:33:14 30° E 04:36:16 10° SSE visible
08 Dec 7.8 06:03:50 10° NNW 06:06:15 18° WNW 06:08:39 10° WSW visible
08 Dec 8.7 16:40:19 10° SSW 16:43:25 29° W 16:46:30 10° NNW visible
